Regional Weather Roundup
Issued by NWS Austin/San Antonio, TX

Current Version | Previous Version | Text Only | Print | Product List | Glossary On
Versions: 1 2 3 4 5 6 7 8 9 10 11 12 13 14 15 16 17 18 19 20 21 22 23 24 25 26 27 28 29 30 31 32 33 34 35 36 37 38 39 40 41 42 43 44 45 46 47 48 49 50
000
ASUS44 KEWX 040313
RWREWX
SOUTH TEXAS REGIONAL WEATHER ROUNDUP
NATIONAL WEATHER SERVICE AUSTIN/SAN ANTONIO TX
1000 PM CDT MON OCT 03 2022

NOTE: "FAIR" INDICATED FEW OR NO CLOUDS BELOW 12,000 FEET WITH NO
SIGNIFICANT WEATHER AND/OR OBSTRUCTIONS TO VISIBILITY.

* - THESE STATIONS ARE NOT NWS OR FAA STATIONS...AND ARE NOT SUBJECT
    TO NWS AND FAA QUALITY CONTROL.

TXZ171-172-183>190-040400-
TEXAS HILL COUNTRY AND EDWARDS PLATEAU

CITY           SKY/WX    TMP DP  RH WIND       PRES   REMARKS
JUNCTION       PTCLDY    70  42  36 CALM      30.14R
*LLANO         MOCLDY    68  39  34 CALM      30.12R
BURNET         MOCLDY    73  40  30 CALM      30.14R
*HORSESHOE BAY MOCLDY    69  39  33 SE3       30.13R
*LAGO VISTA      N/A     69  39  33 E3        30.13R
*KERRVILLE     MOCLDY    71  43  36 CALM      30.14R
*FREDERICKSBRG MOCLDY    69  40  34 E5        30.14R
*ROCKSPRINGS   PTCLDY    66  52  59 S6        30.20R
*BOERNE        CLOUDY    66  41  39 CALM      30.13R
HONDO          MOCLDY    72  48  42 CALM      30.11R
*UVALDE        MOCLDY    70  47  44 CALM      30.12R
DEL RIO        PTCLDY    74  52  46 E8        30.09R
*LAUGHLIN AFB  NOT AVBL
*SPOFFORD      NOT AVBL
CARRIZO SPRGS  MOCLDY    68  50  52 MISG      30.08S
*FAITH RANCH   CLEAR     73  54  49 NE6       30.10S
$$

TXZ173-191>194-202-209-217>225-228-040400-
CENTRAL AND SOUTH CENTRAL TEXAS

CITY           SKY/WX    TMP DP  RH WIND       PRES   REMARKS
GEORGETOWN     MOCLDY    67  45  45 CALM      30.13R
*TAYLOR        MOCLDY    63  45  51 CALM      30.10S
AUSTIN/BERGSTM MOCLDY    64  48  56 CALM      30.09R
AUSTIN/MABRY   MOCLDY    74  45  35 CALM      30.11R
*PFLUGERVILLE  MOCLDY    70  39  32 CALM      30.09R
SAN MARCOS     CLOUDY   N/A N/A N/A CALM        N/A
NEW BRAUNFELS  CLOUDY    73  42  32 SE8       30.09R
*RANDOLPH AFB  NOT AVBL
*SEGUIN        NOT AVBL
SAN ANTONIO    CLOUDY    76  43  30 CALM      30.10R
STINSON FIELD  CLOUDY    72  48  42 E3        30.08R
*KELLY FIELD   NOT AVBL
*PLEASANTON    CLOUDY    69  50  50 CALM      30.10R
*KENEDY        CLOUDY    67  52  58 CALM      30.10R
*LA GRANGE     NOT AVBL
*GIDDINGS      MOCLDY    69  44  40 CALM      30.10R
*GONZALES      MOCLDY    71  45  38 CALM      30.08S
$$

TXZ163>164-176>182-195>201-210>213-226-227-235-040400-
SOUTHEAST TEXAS

CITY           SKY/WX    TMP DP  RH WIND       PRES   REMARKS
COLLEGE STN    MOCLDY    70  50  49 CALM      30.09R
*BRYAN         MOCLDY    69  48  46 CALM      30.11S
*CALDWELL      MOCLDY    65  51  60 N5        30.10R
*CROCKETT      MOCLDY    66  48  52 CALM      30.10S
*BRENHAM       MOCLDY    71  49  45 CALM      30.07
HUNTSVILLE     MOCLDY    72  48  42 CALM      30.09R
CONROE         MOCLDY    63  56  78 CALM      30.09R
HOUSTON BUSH   MOCLDY    70  53  54 CALM      30.07R
HOUSTON HOBBY  MOCLDY    75  52  44 SW5       30.07R
*HOUSTON SW AP NOT AVBL
PEARLAND       PTCLDY    69  56  62 CALM      30.08R
HOUSTON HOOKS  PTCLDY    64  55  72 MISG      30.08R
ELLINGTON FLD  CLEAR     72  54  53 CALM      30.07R
SUGAR LAND     PTCLDY    69  53  56 CALM      30.07R
*HOUSTON EXEC  PTCLDY    68  54  60 CALM      30.09S
*CLEVELAND MUN NOT AVBL
*WHARTON       MOCLDY    69  54  59 SE5       30.08S
*COLUMBUS      FAIR      66  47  49 CALM      30.10R
*EAGLE LAKE    MOCLDY    68  51  55 CALM      30.08R
$$

TXZ214>216-236>238-040400-
THE UPPER TEXAS COAST

CITY           SKY/WX    TMP DP  RH WIND       PRES   REMARKS
*ORANGE        MOCLDY    67  59  75 CALM      30.10R
PORT ARTHUR    MOCLDY    64  59  83 CALM      30.07R
GALVESTON      MOCLDY    75  62  64 CALM      30.07S
ANGLETON         N/A     65  60  84 CALM      30.07R
*BAY CITY      MOCLDY    67  59  76 CALM      30.08S
PALACIOS       MOCLDY    73  63  70 E3        30.07R
$$

TXZ229>234-239>247-040400-
TEXAS COASTAL BEND AND RIO GRANDE PLAINS

CITY           SKY/WX    TMP DP  RH WIND       PRES   REMARKS
VICTORIA       MOCLDY    70  55  59 S8        30.07R
*BEEVILLE      MOCLDY    67  54  64 CALM      30.08R
ROCKPORT       MOCLDY    71  63  75 S3        30.07R
*PORT ARANSAS  MOCLDY   N/A N/A N/A CALM      30.08S
*PORT LAVACA   NOT AVBL
*INGLESIDE     MOCLDY    72  64  76 CALM      30.06S
CORPUS CHRISTI CLOUDY    77  60  55 S3        30.06S
CORPUS NAS     NOT AVBL
*ROBSTOWN      MOCLDY    75  62  62 MISG      30.07S
ALICE          MOCLDY    72  62  71 SE5       30.07R
KINGSVILLE NAS NOT AVBL
COTULLA        MOCLDY    76  49  38 NE6       30.08R
LAREDO         MOCLDY    77  56  48 NE9       30.06S
$$

TXZ248>255-040400-
DEEP SOUTH TEXAS

CITY           SKY/WX    TMP DP  RH WIND       PRES   REMARKS
BROWNSVILLE    MOCLDY    76  65  68 E5        30.05R
PORT ISABEL    MOCLDY    76  64  66 NE7       30.05S
HARLINGEN      MOCLDY    73  63  70 CALM      30.06R
*HEBBRONVILLE  MOCLDY    73  60  65 E5        30.09R
MCALLEN        MOCLDY    77  61  57 E7        30.07R
*WESLACO       MOCLDY    76  62  62 E3        30.07R
FALFURRIAS     MOCLDY    73  66  77 E3        30.06R
EDINBURG       MOCLDY    74  66  77 E3        30.08R
*ZAPATA        MOCLDY    76  58  52 CALM      30.08S
$$

TXZ213>215-236>238-242>244-246-247-251-254-255-040400-
CMAN STATIONS

STATION/POSITION TIME  TEMP    WIND        PRES    WAVE
                       AIR SEA DIR/SP/G            HT/PER
                 (UTC) (F)     (DEG/KT/KT) (MB)    (FT/S)
SEA RIM ST PARK  0300   72     290/  3/  3 1018.4
NORTH JETTY/GLS  0236   77 77  180/  4/  5 1016.9
EAGLE POINT      0218   74 77  220/  3/  4 1017.5
MORGANS POINT    0236   75 78  200/  4/  5 1017.5
MISSION/ARANSAS  0200   79     170/  4     1018.0
PORT O`CONNOR    0236   78 86   70/  5/  6 1017.9
PORT ARANSAS     0300   79      80/  2/  3   N/A
BAFFIN BAY       0236   78 80   50/  5/  6 1018.3
PORT ISABEL      0236   80 83   20/  8/ 10 1017.0
$$



USA.gov is the U.S. government's official web portal to all federal, state and local government web resources and services.